Flag for Isle of Man Weather past 2 weeks in Ramsey, Isle of Man

Now
55 °F

Rain. Partly cloudy.


Feels Like: 54 °F
Forecast: 58 / 62 °F
Wind: 7 mph from South

Location: Isle Of Man / Ronaldsway Airport

Current Time: Aug 2, 2015 at 6:28:13 AM

Latest Report: Aug 2, 2015 at 5:50 AM


Visibility: N/A

Pressure: 29.95 "Hg

Humidity: 94%

Dew point: 54 °F

Location of RamseyLocation

Historic Weather in Ramsey — Graph

°F

Ramsey temperature yesterday

Maximum temperature yesterday: 61 °F (at 11:50 AM)
Minimum temperature yesterday: 52 °F (at 5:50 AM)
Average temperature yesterday: 57 °F

Past Weeks' High & Low Weather Summary

 TemperatureHumidityPressure
High63 °F (Jul 19, 2:50 PM)100% (Jul 19, 1:50 AM)30.12 "Hg (Jul 19, 1:50 AM)
Low52 °F (Jul 19, 6:20 AM)51% (Jul 30, 1:20 PM)29.30 "Hg (Jul 26, 7:50 PM)
Average57 °F81%29.81 "Hg
* Reported Jul 18 4:50 AM — Aug 2 4:50 AM, Ramsey, Weather by CustomWeather, © 2015

Note: Actual official high and low records may vary slightly from our data, if they occured in-between our weather recording intervals... More about our weather records

Advertising

Ramsey weather history for previous 24 hours

 ConditionsComfort  
Time TempWeatherWind HumidityBarometerVisibility
4:50 AM
Sun, Aug 2
57 °FLight rain. Overcast.6 mph94%29.95 "HgN/A
3:50 AM57 °FPassing clouds.14 mph88%29.95 "HgN/A
2:50 AM55 °FPassing clouds.1 mph94%29.95 "HgN/A
1:50 AM54 °FPassing clouds.2 mph94%29.95 "HgN/A
12:50 AM54 °FPassing clouds.2 mph88%29.95 "HgN/A
11:50 PM
Sat, Aug 1
54 °FPassing clouds.3 mph88%29.95 "HgN/A
10:20 PM55 °FPassing clouds.2 mph88%29.95 "HgN/A
9:20 PM55 °FPassing clouds.2 mph94%29.95 "HgN/A
8:50 PM57 °FPassing clouds.6 mph88%29.92 "HgN/A
7:50 PM57 °FPassing clouds.8 mph88%29.92 "HgN/A
7:20 PM59 °FPassing clouds.10 mph82%29.89 "HgN/A
6:50 PM59 °FPassing clouds.10 mph82%29.89 "HgN/A
5:50 PM59 °FPassing clouds.15 mph82%29.89 "HgN/A
5:20 PM61 °FPassing clouds.15 mph77%29.89 "HgN/A
4:50 PM61 °FPassing clouds.15 mph77%29.89 "HgN/A
4:20 PM61 °FPassing clouds.15 mph72%29.89 "HgN/A
3:50 PM61 °FPassing clouds.14 mph72%29.89 "HgN/A
3:20 PM61 °FPassing clouds.15 mph72%29.89 "HgN/A
2:50 PM61 °FPassing clouds.14 mph72%29.89 "HgN/A
2:20 PM61 °FPassing clouds.14 mph68%29.89 "HgN/A
1:50 PM59 °FPassing clouds.13 mph77%29.89 "HgN/A
1:20 PM61 °FPassing clouds.14 mph68%29.89 "HgN/A
12:50 PM61 °FPassing clouds.15 mph68%29.89 "HgN/A
12:20 PM61 °FPassing clouds.14 mph68%29.89 "HgN/A
11:50 AM61 °FPassing clouds.14 mph72%29.89 "HgN/A
11:20 AM59 °FPassing clouds.15 mph77%29.89 "HgN/A
10:50 AM59 °FPassing clouds.13 mph77%29.89 "HgN/A
10:20 AM57 °FPassing clouds.15 mph72%29.89 "HgN/A
9:50 AM57 °FPassing clouds.15 mph77%29.89 "HgN/A
9:20 AM57 °FPassing clouds.12 mph77%29.86 "HgN/A
8:50 AM55 °FPassing clouds.14 mph82%29.86 "HgN/A
8:20 AM55 °FPassing clouds.15 mph82%29.86 "HgN/A
7:50 AM55 °FPassing clouds.14 mph82%29.86 "HgN/A
7:20 AM54 °FPassing clouds.12 mph88%29.86 "HgN/A
6:50 AM54 °FScattered clouds.13 mph88%29.86 "HgN/A
6:20 AM52 °FPassing clouds.9 mph94%29.86 "HgN/A
Weather by CustomWeather, © 2015

See weather overviewHow to use our weather pages